Regional Weather Roundup
Issued by NWS

Home | Current Version | Previous Version | Graphics & Text | Print | Product List | Glossary On
Versions: 1 2 3 4 5 6 7 8 9 10 11 12 13 14 15 16 17 18 19 20 21 22 23 24 25 26 27 28 29 30 31 32 33 34 35 36 37 38 39 40 41 42 43 44 45 46 47 48 49 50
000
ASUS45 KSLC 200110
RWRUT

UTAH REGIONAL WEATHER ROUNDUP
NATIONAL WEATHER SERVICE SALT LAKE CITY UT
600 PM MST FRI DEC 19 2014

UTZ001>011-023>025-200200-

NORTHERN UTAH

CITY           SKY/WX    TMP DP  RH WIND       PRES   REMARKS
BRIGHAM CITY   CLOUDY    40  31  70 NW5       30.12R
HILL AFB       MOCLDY    41  24  51 S9        30.10R
LOGAN          CLOUDY    37  31  78 N7        30.11R WCI  32
OGDEN          CLOUDY    43  26  51 SE10      30.09S
PROVO AIRPORT  NOT AVBL
SALT LAKE CITY CLOUDY    43  25  49 S13       30.09S
VERNAL         CLOUDY    29  22  75 CALM      30.21S
WENDOVER       CLOUDY    36  27  69 CALM      30.10S
HEBER CITY     MOCLDY    36  23  60 S7        30.10S WCI  30
WEST JORDAN    MOCLDY    39  30  70 S13       30.10S WCI  32

$$

UTZ012>022-026-027-200200-

SOUTHERN/CENTRAL UTAH

CITY           SKY/WX    TMP DP  RH WIND       PRES   REMARKS
BLANDING       CLOUDY    32  31  93 CALM      30.27R
BRYCE CANYON   PTCLDY    23  19  85 CALM      30.18R
CEDAR CITY     MOCLDY    36  28  73 S10       30.15R WCI  28
DELTA          MOCLDY    38  26  62 E3        30.12R
MILFORD        MOCLDY    37  27  67 S9        30.12R WCI  30
MOAB/CYNLANDS  CLEAR     33  30  88 NW6       30.20S WCI  28
PRICE          CLOUDY    29  24  82 CALM      30.19S
ST GEORGE      MOCLDY    46  34  61 W3        30.20R
KANAB          PTCLDY    34  30  86 CALM      30.23R

$$

REGIONAL REPORTS     COLORADO/ARIZONA

CITY           SKY/WX    TMP DP  RH WIND       PRES   REMARKS
CRAIG, CO      MOCLDY    18  13  80 NE3       30.19S
GRAND JUNCTION CLOUDY    34  29  82 NW3       30.22R
RIFLE          MOCLDY    32  25  75 S5        30.22R WCI  27
MONTROSE       MOCLDY    34  24  67 NW5       30.21R WCI  30
CORTEZ         CLEAR     34  28  79 CALM      30.19R
PAGE, AZ       CLEAR     40  30  67 CALM      30.20S
GRAND CANYON   PTCLDY    28  24  85 CALM      30.20S
KINGMAN        PTCLDY    44  34  67 SW8       30.18R
FLAGSTAFF      PTCLDY    29  26  89 CALM      30.20R

$$

REGIONAL REPORTS    NEVADA/IDAHO/WYOMING

CITY           SKY/WX    TMP DP  RH WIND       PRES   REMARKS
LAS VEGAS, NV  CLOUDY    52  39  61 SE5       30.13R
ELY            CLOUDY    37  27  67 NE6       30.14R WCI  32
ELKO           LGT RAIN  36  33  89 S5        30.12R WCI  32
POCATELLO, ID  LGT RAIN  36  32  85 S12       30.09R WCI  28
BURLEY         LGT RAIN  36  34  92 W3        30.08S
EVANSTON, WY   CLOUDY    33  22  63 SW15      30.07R WCI  23
ROCK SPRINGS   CLOUDY    30  21  69 SW8       30.09R WCI  22
KEMMERER       CLOUDY    32  23  69 SW5       30.08R WCI  27

$$


USA.gov is the U.S. government's official web portal to all federal, state and local government web resources and services.